RH
56 56 56 55 56 55 54 54 53 53 52 52 51 50 49 48 48 47 46 46 45 45 44 43 43 42 42 41 40 40 39 38 38 37 38 39 39 42 48 56 61 66
53 53 52 52 52 52 53 54 53 53 52 51 50 49 48 47 46 45 44 43 42 42 42 41 41 40 39 39 38 38 37 36 36 36 36 37 38 38 44 54 60 65
49 49 49 49 49 51 51 51 51 50 49 49 47 46 45 43 42 41 40 39 38 37 37 36 36 36 35 36 36 35 35 35 35 35 35 36 37 37 42 55 63 68
48 49 49 49 49 49 48 48 47 46 45 44 42 41 39 37 36 34 33 32 32 31 31 31 31 31 31 31 32 32 32 34 34 34 35 34 36 37 42 55 67 72
49 49 48 47 47 47 46 45 43 42 40 37 34 33 31 31 31 30 30 30 30 29 29 29 29 30 31 30 31 32 32 33 33 34 35 34 36 38 40 51 64 73
48 48 47 46 45 44 42 40 37 35 32 30 30 30 30 30 30 29 28 27 26 26 25 25 26 26 27 28 29 31 32 33 35 35 36 35 36 38 41 48 56 66
47 47 45 43 41 38 35 33 31 30 30 29 29 28 26 25 23 21 21 20 20 20 20 20 20 20 21 22 22 24 26 29 32 35 37 38 38 39 41 46 51 60
46 44 40 37 34 32 31 30 30 29 28 26 22 21 20 18 18 19 19 20 20 20 21 20 20 21 21 20 20 21 21 23 26 30 33 36 39 40 41 46 55 65
40 36 33 31 30 30 30 29 27 24 20 19 17 18 19 19 21 22 21 22 23 23 23 23 23 23 23 23 24 23 22 22 24 27 31 34 38 41 43 50 62 73
33 30 29 30 29 28 26 22 19 18 17 18 19 20 22 22 23 24 24 25 25 25 25 25 26 26 26 26 26 26 26 26 26 29 33 36 39 43 47 55 67 80
30 30 29 28 25 22 19 18 18 19 20 21 22 22 24 25 25 26 27 27 27 28 28 28 28 28 28 28 28 29 29 28 29 32 35 39 43 46 51 61 78 91
30 29 26 21 19 18 18 19 20 21 22 23 25 26 26 27 28 28 29 30 30 30 30 31 31 30 31 31 30 30 31 31 32 33 37 42 45 49 59 74 89 96
28 24 20 17 18 19 20 22 22 23 25 26 27 28 29 29 30 30 31 32 32 32 32 32 32 33 33 33 32 32 33 34 34 35 38 41 45 59 78 92 97 98
22 19 18 18 20 21 22 24 25 26 27 28 29 30 30 30 30 30 31 32 33 33 32 33 33 34 35 35 35 34 35 35 36 38 40 46 62 82 96 101 99 100
19 18 19 21 22 23 25 26 27 28 28 29 30 30 30 30 30 30 30 31 32 31 31 32 34 35 36 37 37 36 38 39 40 47 59 72 88 98 99 98 99 102
19 20 21 22 23 24 26 27 27 28 29 30 30 30 29 29 28 29 30 30 30 29 30 32 33 35 37 37 38 40 42 45 53 67 85 97 100 97 92 90 93 96
20 21 21 23 24 26 27 27 28 29 29 30 30 30 29 28 27 28 29 30 31 29 30 32 32 35 37 37 39 41 42 55 77 91 97 100 101 98 91 84 82 81
21 21 22 24 25 27 27 28 28 29 29 30 30 30 29 28 28 28 29 30 31 30 30 31 32 35 38 38 40 41 42 59 86 99 98 99 99 94 87 79 73 67
22 22 23 24 26 27 27 28 28 29 30 31 31 31 30 28 29 28 29 30 30 30 30 30 32 35 38 39 40 42 43 54 75 89 89 87 82 75 71 66 62 58
22 22 23 24 26 27 27 27 28 29 30 32 33 33 31 29 29 28 29 30 30 31 31 29 32 36 38 40 41 43 44 49 59 65 63 58 55 54 56 53 52 52
22 22 24 24 25 26 26 27 29 29 31 32 33 34 32 31 31 30 29 30 31 33 32 30 31 36 40 42 43 45 47 48 50 49 47 46 45 46 47 46 47 48
22 23 23 24 25 26 26 28 29 29 31 33 33 34 34 32 32 32 32 31 32 34 34 31 31 35 41 43 44 47 48 48 48 47 47 47 45 45 46 46 46 47
22 23 24 24 25 26 27 28 29 30 31 33 34 34 34 33 32 32 33 33 33 35 36 34 31 34 41 44 45 48 50 49 49 49 49 48 46 47 48 47 47 48
22 23 24 25 25 26 27 28 29 30 31 33 35 35 34 34 33 31 31 33 35 36 38 38 34 35 41 44 46 49 51 51 51 50 49 48 47 48 49 49 49 49
22 23 24 25 26 27 28 28 28 29 31 32 35 37 35 34 34 33 31 32 35 36 38 40 38 36 40 44 46 48 52 54 54 53 51 49 49 50 48 48 49 49
22 23 24 25 26 27 28 28 28 28 30 32 34 36 37 35 35 36 33 32 34 35 35 38 40 39 40 44 45 47 51 54 55 54 53 52 52 51 48 45 46 48
Wind_Speed
26 27 29 30 30 32 33 34 35 36 37 37 38 39 39 39 39 39 39 38 38 38 38 38 38 38 38 37 37 36 35 35 34 34 34 34 33 31 30 30 30 29
27 28 29 30 31 32 33 34 35 36 37 38 39 40 40 41 41 41 41 41 40 40 39 39 39 39 39 39 38 38 37 36 35 34 34 35 34 33 31 30 31 30
28 29 29 30 31 32 33 34 35 37 38 38 39 40 41 41 42 42 42 42 42 42 41 41 40 40 39 39 39 39 37 37 36 35 35 36 35 34 32 31 31 30
29 30 31 31 32 33 34 35 36 37 38 39 39 40 41 41 42 42 42 42 42 42 41 41 41 40 40 39 39 39 38 37 37 36 37 37 36 35 33 31 31 31
30 31 32 33 33 35 36 37 38 38 39 40 40 40 41 41 41 41 42 42 41 41 41 41 40 40 40 40 39 38 38 38 37 36 37 38 36 35 34 32 32 32
30 31 33 34 35 36 37 38 38 39 39 40 40 40 41 41 41 41 41 42 41 41 41 41 40 40 39 39 39 39 38 37 37 36 37 37 36 35 34 33 33 33
31 32 33 35 35 36 37 37 37 38 39 40 40 40 41 41 40 40 40 40 40 40 40 40 40 40 40 39 39 39 38 37 37 36 36 36 36 36 34 32 32 33
32 33 34 34 35 35 36 36 37 38 38 39 39 39 39 39 39 39 39 39 39 40 40 40 40 39 39 38 38 38 37 37 36 36 36 36 35 35 34 31 31 31
32 32 33 33 34 34 35 36 36 37 37 37 37 38 38 38 38 38 39 39 39 40 40 39 39 39 38 37 37 37 37 36 36 35 35 35 35 34 33 30 30 29
31 31 32 32 33 34 34 35 35 35 35 35 36 37 37 37 38 38 38 39 39 39 40 40 40 39 39 38 37 36 36 36 35 34 34 34 33 32 31 29 28 28
30 31 32 32 32 33 33 33 33 34 34 35 36 36 37 37 38 38 38 38 39 39 39 40 40 40 39 38 37 36 36 35 35 34 33 32 31 31 30 28 27 28
30 31 31 31 31 31 31 31 32 33 34 34 35 36 37 37 38 38 38 38 38 38 39 39 39 39 39 38 38 37 35 35 34 33 32 31 31 30 28 27 27 28
30 30 30 30 30 30 30 31 31 33 34 34 35 36 37 37 38 38 37 37 38 37 38 38 38 38 38 38 37 36 35 34 33 33 32 31 29 28 27 27 29 30
29 28 28 28 29 30 30 31 32 33 34 34 35 36 37 37 38 38 37 37 37 37 37 37 38 37 37 37 36 36 35 34 33 32 31 30 28 28 28 30 31 31
27 27 28 28 29 29 30 31 32 33 34 35 36 36 37 37 37 37 37 37 36 36 36 37 37 37 36 36 36 36 34 33 32 30 30 29 29 30 31 32 32 33
27 27 27 28 28 29 31 32 33 34 35 36 36 37 37 37 37 36 36 37 37 36 36 36 36 36 35 35 35 34 33 31 30 29 29 29 31 32 33 34 35 36
27 27 27 28 28 30 32 33 34 35 36 36 37 37 37 36 36 36 36 36 37 37 36 36 36 35 35 35 34 32 30 28 28 29 29 30 32 34 36 37 38 39
27 28 28 29 30 31 33 34 35 36 37 37 37 37 37 37 36 36 36 36 37 37 37 36 36 35 34 34 33 32 30 28 28 29 30 31 34 36 38 40 41 42
27 28 29 30 31 32 34 35 36 37 37 37 38 38 37 37 37 37 37 36 37 37 37 36 36 35 34 34 33 32 30 28 28 29 32 34 37 38 40 41 42 42
28 29 30 31 32 33 35 36 36 37 37 37 38 38 38 38 38 37 37 37 37 37 37 37 36 35 34 34 33 33 31 30 30 32 35 37 38 38 39 40 40 41
29 30 31 32 33 34 35 36 37 37 37 37 38 38 38 39 39 38 38 37 36 37 37 37 35 34 34 34 34 33 32 32 33 35 37 37 37 37 37 38 38 38
30 31 32 33 34 35 36 36 37 37 37 38 38 39 39 39 39 39 39 38 37 36 37 37 35 34 33 34 34 33 33 34 36 37 37 38 38 37 37 36 36 36
30 32 33 33 34 35 36 37 37 38 37 38 39 40 40 39 39 40 39 39 38 37 37 38 36 33 33 33 33 33 33 35 37 38 38 39 39 38 37 36 35 34
31 32 33 34 35 36 36 37 38 38 38 38 39 40 40 40 40 40 40 39 39 38 38 38 37 34 33 32 32 32 33 35 37 38 39 40 40 39 38 37 36 34
31 32 33 34 35 36 36 37 38 38 38 38 39 40 41 41 40 41 41 40 40 39 39 39 38 36 33 32 32 32 32 34 36 38 40 40 40 40 40 38 36 35
31 32 33 34 35 36 36 37 37 38 38 39 39 40 41 41 41 41 42 41 40 40 39 38 38 36 33 32 33 32 32 33 35 37 39 40 40 41 41 40 38 36
Wind_Direction
347 347 347 346 344 342 340 339 338 337 337 335 334 333 332 331 330 329 328 327 326 325 324 323 323 322 321 320 320 319 319 318 317 316 314 313 313 313 312 311 310 310
344 344 343 341 339 338 336 336 335 334 333 332 331 330 329 328 327 326 325 324 323 323 322 321 320 319 318 318 317 316 316 315 314 314 311 310 310 310 309 308 307 307
341 339 338 336 335 333 332 331 331 330 329 328 327 326 326 325 325 324 324 323 322 321 321 320 318 318 317 316 315 314 314 313 312 311 309 308 308 307 307 306 304 304
338 336 334 332 331 329 329 328 327 326 326 325 325 325 324 324 324 324 323 323 322 321 321 320 318 317 316 315 314 313 313 312 311 310 308 307 307 306 305 305 303 302
334 332 330 329 328 327 327 326 326 326 326 325 325 325 325 325 324 324 324 323 322 322 321 320 318 318 316 315 314 313 313 311 310 309 307 306 306 305 304 303 301 300
329 328 327 326 327 326 326 326 327 327 326 326 326 326 325 325 325 325 325 324 323 323 322 321 320 318 317 316 315 313 312 310 309 308 306 305 305 304 304 303 301 299
326 325 325 325 326 326 326 327 326 326 326 325 325 326 325 326 326 326 326 325 325 324 324 323 322 322 321 319 317 315 313 310 308 306 304 304 303 302 303 302 301 300
324 324 325 325 325 325 326 325 325 325 326 326 326 326 327 327 328 327 327 326 326 325 325 324 323 323 322 321 319 317 315 312 310 307 305 304 303 302 302 303 302 300
323 324 324 324 324 324 324 325 325 326 327 327 327 327 328 328 328 327 327 326 325 325 324 323 323 322 322 321 320 318 316 314 312 309 306 305 303 303 303 302 301 301
322 323 323 323 323 323 324 325 327 327 327 327 327 328 328 328 327 327 326 325 325 324 323 323 323 323 322 322 320 318 316 314 312 310 308 306 304 302 301 302 302 304
321 322 322 323 323 324 325 327 327 327 327 328 328 328 328 328 327 327 326 325 325 324 324 323 323 323 323 322 321 319 316 314 312 310 308 306 303 300 300 302 304 305
320 321 321 322 324 325 327 327 327 327 328 328 328 328 328 328 327 327 326 326 326 325 324 324 324 324 323 323 321 320 318 315 312 310 307 305 301 301 305 307 307 306
318 320 322 324 325 327 327 327 326 327 328 328 329 329 328 327 327 327 327 327 326 326 325 324 324 324 324 323 322 321 319 316 312 309 306 305 305 309 314 312 308 305
318 321 324 325 326 326 326 325 326 327 328 329 329 329 328 328 327 327 327 327 327 326 325 325 324 324 325 324 322 321 319 316 314 311 310 311 314 316 313 308 304 302
321 323 325 325 325 325 324 325 326 327 328 329 329 329 328 328 327 327 327 326 326 325 325 325 324 325 325 324 323 322 321 319 317 315 315 316 314 309 303 300 298 296
323 323 324 324 323 323 323 325 326 328 329 330 330 329 328 327 327 327 327 326 326 325 325 325 325 325 325 324 324 324 322 319 316 314 314 310 305 299 296 294 293 292
322 321 322 322 322 323 323 325 326 328 329 329 329 328 327 327 327 326 326 326 325 325 325 325 325 326 325 324 324 323 320 317 313 310 307 302 298 296 293 291 291 291
320 320 321 322 323 323 324 325 326 327 328 328 327 327 326 326 326 326 326 326 325 325 325 325 326 326 326 324 323 322 320 316 310 305 301 297 293 291 291 291 292 294
319 319 322 323 322 323 323 324 325 325 326 326 325 326 326 326 326 326 326 326 325 325 324 324 325 326 325 324 322 321 320 314 306 300 296 292 291 291 292 293 295 297
319 320 322 322 322 322 322 323 322 323 324 324 324 324 325 325 325 325 325 325 325 324 323 323 325 325 324 323 321 320 318 312 304 298 296 295 295 295 294 295 297 298
319 321 321 321 321 320 320 320 320 321 322 322 322 323 324 325 325 324 324 325 324 323 322 322 324 325 324 322 320 319 316 310 304 301 301 301 301 299 298 299 300 301
320 321 320 320 319 318 318 318 318 319 320 321 322 322 323 324 324 323 323 324 324 323 321 321 323 325 323 321 319 317 314 309 306 305 304 303 303 304 303 304 303 303
321 320 318 318 316 316 316 316 316 318 319 320 321 321 323 323 323 322 322 322 323 322 321 320 323 325 323 319 317 315 312 309 307 306 305 304 305 306 306 306 305 305
319 318 316 315 314 314 314 314 315 317 318 319 320 320 321 322 321 321 322 322 322 322 321 320 322 324 322 318 315 313 309 307 306 306 305 305 306 307 306 305 305 305
317 315 314 313 313 312 312 313 314 316 317 318 318 318 319 320 320 320 320 321 321 320 320 319 320 322 322 318 315 312 309 307 305 304 304 305 306 306 306 305 305 306
315 314 312 312 312 311 311 312 314 315 316 316 316 317 317 318 319 318 318 320 320 319 319 319 319 321 321 317 314 312 309 306 303 302 303 304 304 304 305 307 308 308